DW4433 Weather Reports


time (UTC)temp
C
wind
direction
speed
KPH
gust
KPH
rain 1hr
cm
rain 24hr
cm
rain mn
cm
humidity
%
barometer
mb
20260505193052 14 360 0.0 0.0 0.00 0.00 0.00 33 1010.8
20260505191548 14 360 0.0 0.0 0.00 0.00 0.00 36 1010.6
20260505190043 15 360 0.0 0.0 0.00 0.00 0.00 40 1010.7
20260505184539 15 360 0.0 0.0 0.00 0.00 0.00 44 1010.6
20260505183049 15 360 0.0 0.0 0.00 0.00 0.00 49 1010.5
20260505181528 15 360 0.0 3.2 0.00 0.00 0.00 51 1010.5
20260505180024 16 331 0.0 3.2 0.00 0.00 0.00 51 1010.5
20260505174519 16 34 0.0 1.6 0.00 0.00 0.00 51 1010.5
20260505173012 16 26 0.0 1.6 0.00 0.00 0.00 50 1010.6
20260505171509 17 325 0.0 1.6 0.00 0.00 0.00 49 1010.6
20260505170007 17 82 0.0 6.4 0.00 0.00 0.00 48 1010.6
20260505164606 17 355 1.6 9.7 0.00 0.00 0.00 47 1010.6
20260505163053 17 46 0.0 9.7 0.00 0.00 0.00 47 1010.6
20260505161550 17 32 0.0 8.0 0.00 0.00 0.00 47 1010.6
20260505153035 18 299 0.0 12.9 0.00 0.00 0.00 45 1010.7
20260505151529 18 5 1.6 8.0 0.00 0.00 0.00 46 1010.6
20260505124519 17 20 1.6 17.7 0.00 0.00 0.00 49 1011.2
20260505123006 18 54 0.0 11.3 0.00 0.00 0.00 49 1011.2
20260505121501 18 37 0.0 8.0 0.00 0.00 0.00 49 1011.2
20260505120051 18 348 0.0 9.7 0.00 0.00 0.00 49 1011.2
20260505114550 18 17 0.0 9.7 0.00 0.00 0.00 48 1011.2
20260505113039 18 30 0.0 11.3 0.00 0.00 0.00 48 1011.3
20260505111534 17 40 0.0 6.4 0.00 0.00 0.00 42 1011.3
20260505101526 17 288 0.0 6.4 0.00 0.00 0.00 17 1011.4
20260505100021 17 36 0.0 6.4 0.00 0.00 0.00 20 1011.4
20260505094526 18 227 0.0 1.6 0.00 0.00 0.00 7 1011.3
20260505093013 17 94 0.0 8.0 0.00 0.00 0.00 100 1011.4
20260505091509 17 295 0.0 9.7 0.00 0.00 0.00 100 1011.6
20260505090016 16 320 0.0 11.3 0.00 0.00 0.00 100 1011.5
20260505084503 16 30 0.0 11.3 0.00 0.00 0.00 100 1011.5
20260505083103 15 300 0.0 3.2 0.00 0.00 0.00 100 1011.5
20260505081605 14 55 0.0 9.7 0.00 0.00 0.00 100 1011.5
20260505080022 13 16 0.0 3.2 0.00 0.00 0.00 100 1011.7
20260505074518 13 290 0.0 1.6 0.00 0.00 0.00 100 1011.8
20260505073009 13 9 0.0 3.2 0.00 0.00 0.00 100 1011.8
20260505071518 13 333 0.0 3.2 0.00 0.00 0.00 100 1011.9
20260505070001 12 331 0.0 3.2 0.00 0.00 0.00 100 1011.9
20260505064557 12 311 0.0 8.0 0.00 0.00 0.00 100 1011.9
20260505063053 12 355 0.0 1.6 0.00 0.00 0.00 100 1011.8
20260505061549 11 337 0.0 1.6 0.00 0.00 0.00 100 1012.0
20260505060049 11 59 0.0 6.4 0.00 0.00 0.00 100 1012.0
20260505054538 11 55 0.0 3.2 0.00 0.00 0.00 100 1011.9
20260505053033 11 40 0.0 6.4 0.00 0.00 0.00 100 1012.0
20260505051608 11 45 0.0 1.6 0.00 0.00 0.00 100 1012.0
20260505050103 11 30 0.0 3.2 0.00 0.00 0.00 100 1012.0
20260505041540 11 179 0.0 0.0 0.00 0.00 0.00 100 1012.2
20260505040038 11 79 0.0 0.0 0.00 0.00 0.00 100 1012.3
20260505034528 11 33 0.0 0.0 0.00 0.00 0.00 100 1012.5
20260505033024 11 51 0.0 0.0 0.00 0.00 0.00 100 1012.6
20260505031519 11 327 0.0 0.0 0.00 0.00 0.00 100 1012.8
20260505030017 11 11 0.0 1.6 0.00 0.00 0.00 100 1012.8
20260505024512 11 15 0.0 0.0 0.00 0.00 0.00 100 1012.8
20260505023016 11 17 0.0 0.0 0.00 0.00 0.00 100 1012.8
20260505021600 11 17 0.0 0.0 0.00 0.00 0.00 100 1013.0
20260505020056 11 15 0.0 0.0 0.00 0.00 0.00 100 1013.0
20260505014549 11 80 0.0 0.0 0.00 0.00 0.00 100 1013.0
20260505013100 12 80 0.0 0.0 0.00 0.00 0.00 100 1013.2
20260505011540 12 34 0.0 0.0 0.00 0.00 0.00 100 1013.3
20260505010036 12 34 0.0 0.0 0.00 0.00 0.00 100 1013.3
20260505004528 12 34 0.0 0.0 0.00 0.00 0.00 100 1013.3
20260505003024 12 27 0.0 0.0 0.00 0.00 0.00 100 1013.6
20260505001520 12 34 0.0 3.2 0.00 0.00 0.00 100 1013.7
20260505000023 12 41 0.0 0.0 0.00 0.00 0.00 100 1013.8
20260504234509 12 45 0.0 0.0 0.00 0.00 0.00 100 1013.9
20260504233006 12 45 0.0 0.0 0.00 0.00 0.00 100 1013.7
20260504231600 12 45 0.0 0.0 0.00 0.00 0.00 100 1013.8
20260504230021 12 45 0.0 0.0 0.00 0.00 0.00 100 1013.6
20260504224520 12 49 0.0 0.0 0.00 0.00 0.00 100 1013.7
20260504223013 12 49 0.0 0.0 0.00 0.00 0.00 100 1013.8
20260504221508 12 49 0.0 0.0 0.00 0.00 0.00 100 1014.0
20260504220037 12 60 0.0 0.0 0.00 0.00 0.00 100 1014.2
20260504214614 12 200 0.0 0.0 0.00 0.00 0.00 100 1014.2
20260504213059 12 209 0.0 0.0 0.00 0.00 0.00 100 1014.1
20260504211535 12 211 0.0 0.0 0.00 0.00 0.00 100 1014.0
20260504210012 12 211 0.0 0.0 0.00 0.00 0.00 100 1013.9
20260504204537 12 211 0.0 0.0 0.00 0.00 0.00 100 1013.9
20260504203036 12 211 0.0 0.0 0.00 0.00 0.00 100 1014.0
20260504201528 12 211 0.0 0.0 0.00 0.00 0.00 100 1013.9
20260504200023 12 211 0.0 0.0 0.00 0.00 0.00 100 1013.7
20260504194517 12 211 0.0 0.0 0.00 0.00 0.00 100 1013.6